[[{"header":{"parameterUnit":"m.s-1","parameterCategory":1,"la1":30.2991,"la2":30.254,"lo1":-89.0895,"lo2":-89.0444,"dy":0.0017,"dx":0.0017,"nx":28,"ny":28,"refTime":"2025-03-15T21:00:00:Z","depth":0,"parameterNumber":2,"parameterNumberName":"U-component_of_WINDS"},"data":[0,0,0,0,0,0,0,0,0,0,0,0,0,0,0,0,0,0,0,0,0,0,0,0,0,0,0,0,0,0,0,0,0,0,0,0,0,0,0,0,0,0,0,0,0,0,0,0,0,0,0,0,0,0,0,0,0,0,-5.4216,-5.4218,0,-5.4404,-5.4407,-5.4409,-5.4463,-5.4462,-5.4461,-5.446,-5.4651,-5.4657,-5.4663,0,0,0,0,0,0,0,0,0,0,0,0,0,-5.3903,-5.3908,-5.4216,-5.4218,-5.4221,-5.4404,-5.4407,-5.4409,-5.4464,-5.4462,-5.4461,-5.446,-5.4649,-5.4656,-5.4664,0,0,0,0,0,0,0,0,0,0,0,0,0,-5.4059,-5.391,-5.4215,-5.427,-5.4277,-5.4404,-5.4407,-5.441,-5.4464,-5.4462,-5.4461,-5.4459,-5.4647,-5.4656,-5.4665,-5.475,0,0,-5.4692,-5.4696,0,0,0,0,0,0,0,0,-5.405,-5.4071,-5.426,-5.4266,-5.4274,-5.4409,-5.4366,-5.4524,-5.4464,-5.4393,-5.446,-5.4459,-5.4572,-5.4587,-5.4625,-5.4759,-5.4767,-5.4693,-5.4698,-5.4702,-5.4705,0,0,0,0,0,0,0,-5.404,-5.4063,-5.429,-5.4262,-5.4271,-5.4285,-5.4305,-5.4396,-5.4488,-5.4399,-5.4403,-5.4425,-5.4575,-5.4617,-5.463,-5.477,-5.4693,-5.4701,-5.4706,-5.471,-5.4984,-5.4986,0,0,0,0,0,0,-5.402,-5.4054,-5.4284,-5.4296,-5.4156,-5.4292,-5.4315,-5.4367,-5.4487,-5.4504,-5.4426,-5.4427,-5.4602,-5.462,-5.4637,-5.4745,-5.4702,-5.4711,-5.4716,-5.4982,-5.4984,-5.4986,0,0,0,0,0,0,-5.4013,-5.404,-5.4277,-5.4176,-5.4207,-5.4299,-5.4357,-5.4372,-5.4413,-5.4508,-5.4524,-5.4451,-5.4601,-5.4625,-5.4722,-5.4752,-5.4715,-5.4723,-5.498,-5.4983,-5.4985,-5.496,0,0,0,0,0,0,-5.4003,-5.4037,-5.407,-5.4177,-5.4213,-5.4358,-5.4359,-5.4376,-5.4428,-5.4431,-5.4536,-5.4552,-5.4602,-5.4708,-5.4731,-5.4764,-5.473,-5.4978,-5.4981,-5.4985,-5.4959,-5.4962,-5.4965,0,0,0,0,0,-5.3992,-5.4055,-5.4072,-5.4099,-5.4256,-5.436,-5.4381,-5.4438,-5.4431,-5.4465,-5.4526,-5.4548,-5.4746,-5.4718,-5.4744,-5.478,-5.4976,-5.498,-5.4984,-5.4958,-5.4961,-5.4965,0,0,0,0,0,0,-5.3949,-5.407,-5.4089,-5.4189,-5.4264,-5.4369,-5.4414,-5.444,-5.4518,-5.4517,-5.4584,-5.4607,-5.4699,-5.475,-5.4717,-5.4869,-5.4861,-5.4871,-5.4832,-5.4837,-5.484,-5.4824,-5.4738,0,0,0,0,0,-5.3951,-5.4026,-5.4128,-5.4206,-5.4242,-5.4322,-5.4369,-5.4407,-5.4486,-5.4518,-5.4587,-5.4663,-5.4742,-5.4793,-5.4871,-5.4968,-5.4991,-5.5006,-5.5008,-5.501,-5.5017,-5.5072,-5.5079,-5.5,-5.5,-5.5,0,0,-5.3956,-5.4032,-5.4074,-5.4199,-5.4261,-5.4336,-5.4348,-5.4427,-5.4483,-5.453,-5.4626,-5.4679,-5.4769,-5.4866,-5.4912,-5.4911,-5.5045,-5.5016,-5.5017,-5.5022,-5.5077,-5.5084,-5.509,-5.5003,-5.5003,-5.5002,0,0,-5.4003,-5.4068,-5.414,-5.4203,-5.4298,-5.4351,-5.4368,-5.447,-5.4507,-5.4605,-5.4642,-5.471,-5.4845,-5.4908,-5.4957,-5.503,-5.5053,-5.5054,-5.5068,-5.512,-5.5126,-5.5132,-5.5157,-5.5165,-5.5061,-5.5061,-5.5061,0,-5.3997,-5.4112,-5.4174,-5.4251,-5.4305,-5.4353,-5.4426,-5.4484,-5.4599,-5.4634,-5.4632,-5.4803,-5.4867,-5.4979,-5.4997,-5.5036,-5.5057,-5.504,-5.5121,-5.5127,-5.5133,-5.5157,-5.5167,-5.506,-5.506,-5.506,-5.506,0,-5.4099,-5.4178,-5.4225,-5.4336,-5.4395,-5.447,-5.4543,-5.4596,-5.4629,-5.4682,-5.4781,-5.486,-5.4954,-5.4985,-5.5018,-5.5102,-5.5098,-5.5107,-5.51,-5.5139,-5.5163,-5.5173,-5.5059,-5.5059,-5.5059,-5.506,0,0,-5.4121,-5.4267,-5.4283,-5.4334,-5.4443,-5.4505,-5.4583,-5.4676,-5.472,-5.4798,-5.4864,-5.4979,-5.4988,-5.5044,-5.5085,-5.5131,-5.5183,-5.5135,-5.5138,-5.514,-5.528,-5.527,-5.528,-5.52,-5.5202,-5.5204,-5.5272,0,-5.418,-5.432,-5.4379,-5.4492,-5.4566,-5.4613,-5.4681,-5.4755,-5.4807,-5.4877,-5.4935,-5.5015,-5.5022,-5.5056,-5.5104,-5.5166,-5.5211,-5.5163,-5.5261,-5.5264,-5.5234,-5.5293,-5.5283,-5.5343,-5.5281,-5.5283,-5.5284,0,-5.4267,-5.4347,-5.4467,-5.4568,-5.4601,-5.4661,-5.4752,-5.4819,-5.4904,-5.4939,-5.5002,-5.5041,-5.5124,-5.5114,-5.5229,-5.5194,-5.5239,-5.5275,-5.5279,-5.5288,-5.5274,-5.5302,-5.5364,-5.5372,-5.53,-5.5299,-5.5298,0,-5.4269,-5.4407,-5.4497,-5.4539,-5.466,-5.47,-5.4752,-5.4836,-5.4889,-5.4969,-5.5004,-5.5092,-5.514,-5.5207,-5.5269,-5.5256,-5.5378,-5.5373,-5.5408,-5.5406,-5.5429,-5.5426,-5.5497,-5.5461,-5.5461,-5.5461,-5.5461,0,-5.4328,-5.4399,-5.4499,-5.4554,-5.4635,-5.4703,-5.4782,-5.4837,-5.4912,-5.4978,-5.5026,-5.5087,-5.5166,-5.5237,-5.5286,-5.5373,-5.5395,-5.5425,-5.5436,-5.5419,-5.5415,-5.5447,-5.5444,-5.5463,-5.5463,-5.5462,-5.5462,0,-5.4342,-5.4413,-5.4513,-5.462,-5.4648,-5.4703,-5.4794,-5.4849,-5.4905,-5.4988,-5.5012,-5.5098,-5.5185,-5.5254,-5.5367,-5.54,-5.5491,-5.5505,-5.5462,-5.5467,-5.5498,-5.5493,-5.559,-5.5605,-5.556,-5.5561,-5.5561,0,-5.4374,-5.443,-5.4543,-5.4591,-5.4643,-5.4719,-5.4774,-5.4844,-5.4898,-5.5001,-5.5043,-5.5133,-5.5209,-5.5345,-5.5418,-5.5504,-5.552,-5.5548,-5.5533,-5.5514,-5.5518,-5.5513,-5.5519,-5.5548,-5.5548,-5.5549,-5.5549,0,-5.4422,-5.4454,-5.4531,-5.4621,-5.4685,-5.4759,-5.4833,-5.487,-5.4953,-5.5012,-5.5102,-5.5161,-5.5277,-5.5365,-5.546,-5.5513,-5.5545,-5.5553,-5.5566,-5.5547,-5.5519,-5.5533,-5.5464,-5.555,-5.555,-5.555,-5.555,-5.555,-5.4445,-5.4497,-5.4585,-5.4669,-5.4733,-5.4802,-5.4859,-5.4922,-5.4998,-5.5098,-5.5135,-5.5226,-5.5312,-5.5442,-5.5497,-5.5569,-5.5571,-5.559,-5.5594,-5.5597,-5.5594,-5.551,-5.5587,-5.5587,-5.5587,-5.5587,-5.5587,0,-5.4494,-5.4553,-5.463,-5.4734,-5.48,-5.4826,-5.4911,-5.4964,-5.5044,-5.5121,-5.5195,-5.5298,-5.5385,-5.5465,-5.5556,-5.5598,-5.5615,-5.562,-5.5616,-5.5628,-5.5587,-5.5567,-5.5604,-5.5604,-5.5604,-5.5604,-5.5604,-5.5604,-5.4527,-5.4616,-5.4659,-5.478,-5.484,-5.493,-5.4976,-5.504,-5.5102,-5.5215,-5.5287,-5.5339,-5.5418,-5.5515,-5.5596,-5.5617,-5.5648,-5.5648,-5.5673,-5.5633,-5.563,-5.5628,-5.5609,-5.5655,-5.5655,-5.5707,-5.5708,-5.5708]},{"header":{"parameterUnit":"m.s-1","parameterCategory":1,"la1":30.2991,"la2":30.254,"lo1":-89.0895,"lo2":-89.0444,"dy":0.0017,"dx":0.0017,"nx":28,"ny":28,"refTime":"2025-03-15T21:00:00:Z","depth":0,"parameterNumber":3,"parameterNumberName":"V-component_of_WINDS"},"data":[0,0,0,0,0,0,0,0,0,0,0,0,0,0,0,0,0,0,0,0,0,0,0,0,0,0,0,0,0,0,0,0,0,0,0,0,0,0,0,0,0,0,0,0,0,0,0,0,0,0,0,0,0,0,0,0,0,0,7.5568,7.5569,0,7.5685,7.5686,7.5687,7.5673,7.5671,7.5669,7.5668,7.5783,7.5788,7.5793,0,0,0,0,0,0,0,0,0,0,0,0,0,7.5331,7.5335,7.5568,7.5569,7.5571,7.5685,7.5686,7.5688,7.5673,7.5671,7.5669,7.5667,7.5782,7.5787,7.5793,0,0,0,0,0,0,0,0,0,0,0,0,0,7.5439,7.5337,7.5567,7.5577,7.5579,7.5684,7.5686,7.5688,7.5674,7.5671,7.5668,7.5666,7.578,7.5787,7.5794,7.5895,0,0,7.5816,7.5819,0,0,0,0,0,0,0,0,7.5433,7.5448,7.5574,7.5577,7.5579,7.5662,7.5645,7.5757,7.5675,7.5638,7.5668,7.5664,7.5745,7.5755,7.5783,7.59,7.5905,7.5817,7.5821,7.5824,7.5826,0,0,0,0,0,0,0,7.5426,7.5443,7.5614,7.5576,7.5579,7.5576,7.5588,7.5666,7.5706,7.5641,7.564,7.5654,7.5745,7.5776,7.5785,7.5907,7.5817,7.5823,7.5827,7.583,7.6118,7.6122,0,0,0,0,0,0,7.5416,7.5437,7.561,7.5617,7.5498,7.5582,7.5596,7.5638,7.5705,7.5712,7.5657,7.5653,7.5765,7.5777,7.5789,7.5916,7.5824,7.5831,7.5835,7.6115,7.6119,7.6123,0,0,0,0,0,0,7.5411,7.5432,7.5605,7.5527,7.5549,7.5589,7.5637,7.5642,7.5672,7.5717,7.5723,7.5681,7.5763,7.5779,7.587,7.5919,7.5834,7.5841,7.6111,7.6116,7.6121,7.6167,0,0,0,0,0,0,7.5404,7.543,7.5469,7.5528,7.5553,7.5685,7.564,7.5646,7.5685,7.5682,7.5741,7.5748,7.5762,7.586,7.5877,7.5928,7.5846,7.6107,7.6114,7.6119,7.6161,7.6173,7.6183,0,0,0,0,0,7.5396,7.5475,7.5471,7.5492,7.5603,7.5688,7.5702,7.5718,7.5689,7.5729,7.5758,7.5746,7.5911,7.5869,7.5889,7.5942,7.6104,7.6112,7.6119,7.6156,7.6171,7.6183,0,0,0,0,0,0,7.5418,7.5483,7.5479,7.558,7.5629,7.5685,7.5736,7.5732,7.5788,7.5783,7.5799,7.5812,7.5905,7.5932,7.5885,7.6046,7.6003,7.6015,7.6025,7.6039,7.6049,7.6042,7.5852,0,0,0,0,0,7.5435,7.55,7.5552,7.5636,7.5661,7.5695,7.5732,7.574,7.5791,7.5811,7.5847,7.5896,7.5959,7.6,7.606,7.6165,7.6179,7.6211,7.6222,7.6231,7.6241,7.6303,7.6319,7.6147,7.6147,7.6147,0,0,7.547,7.5514,7.5553,7.5642,7.5681,7.5748,7.5712,7.5782,7.5833,7.5821,7.5911,7.5939,7.5995,7.6095,7.614,7.612,7.6292,7.624,7.6247,7.6253,7.6312,7.6328,7.6343,7.6152,7.6151,7.6151,0,0,7.5569,7.5607,7.5684,7.5725,7.5785,7.5807,7.5826,7.5884,7.5903,7.5994,7.5988,7.6047,7.6154,7.6196,7.6231,7.635,7.6342,7.6369,7.6425,7.6485,7.6498,7.6511,7.6556,7.6572,7.6378,7.6379,7.6379,0,7.5605,7.5706,7.5723,7.5797,7.5837,7.5833,7.5911,7.5949,7.6025,7.6053,7.603,7.6168,7.6205,7.6316,7.6346,7.6373,7.6396,7.6362,7.6495,7.6508,7.6519,7.6563,7.658,7.6382,7.6381,7.6381,7.6381,0,7.5749,7.5819,7.5874,7.5951,7.5997,7.6072,7.6101,7.6146,7.6151,7.6176,7.627,7.6315,7.6386,7.6412,7.6416,7.6525,7.6512,7.6492,7.645,7.6538,7.658,7.6597,7.6386,7.6385,7.6384,7.6383,0,0,7.5864,7.5953,7.5973,7.6009,7.6077,7.6132,7.6208,7.628,7.632,7.6372,7.6438,7.6531,7.6515,7.6554,7.6563,7.6615,7.6711,7.6589,7.6591,7.6613,7.6838,7.6855,7.6874,7.6706,7.6709,7.6712,7.6834,0,7.5972,7.6109,7.6128,7.6248,7.6315,7.6313,7.638,7.6429,7.6455,7.6515,7.6543,7.661,7.6581,7.6606,7.6657,7.6689,7.6757,7.668,7.6768,7.6771,7.6757,7.6895,7.6912,7.7025,7.685,7.6853,7.6855,0,7.6116,7.6177,7.6305,7.6368,7.6397,7.6457,7.6526,7.6584,7.664,7.6655,7.6702,7.6706,7.6785,7.674,7.6851,7.6798,7.6835,7.6856,7.6861,7.6872,7.682,7.6912,7.7061,7.708,7.688,7.6878,7.6876,0,7.6192,7.6305,7.6398,7.6429,7.6503,7.6546,7.6579,7.6633,7.6676,7.6736,7.6765,7.6833,7.6871,7.6923,7.6946,7.6909,7.7057,7.7012,7.7073,7.7073,7.7105,7.7104,7.7266,7.7125,7.7125,7.7125,7.7124,0,7.6312,7.6391,7.6434,7.6491,7.6581,7.6602,7.669,7.6721,7.6769,7.6833,7.6834,7.6893,7.6918,7.6982,7.6999,7.7091,7.7107,7.7122,7.7127,7.7124,7.7123,7.715,7.7144,7.7129,7.7128,7.7127,7.7126,0,7.6412,7.6443,7.6545,7.6609,7.6626,7.669,7.6744,7.68,7.6826,7.6907,7.6927,7.6968,7.7044,7.7071,7.7161,7.7174,7.7281,7.7277,7.7263,7.7265,7.7326,7.7321,7.7514,7.7542,7.738,7.7381,7.7382,0,7.6488,7.655,7.6621,7.6665,7.6701,7.677,7.6816,7.6839,7.6886,7.6958,7.7006,7.7081,7.7143,7.7264,7.7301,7.7372,7.7371,7.7434,7.7382,7.7379,7.7376,7.7374,7.7381,7.7445,7.7446,7.7447,7.7449,0,7.6621,7.6634,7.67,7.6774,7.6829,7.6886,7.6942,7.6978,7.701,7.7063,7.7142,7.719,7.7285,7.7361,7.7434,7.7467,7.7465,7.7465,7.7484,7.7483,7.7474,7.7483,7.7293,7.7461,7.7459,7.7458,7.7458,7.7457,7.6714,7.677,7.6831,7.6905,7.6951,7.7004,7.7061,7.7096,7.7162,7.7243,7.7252,7.7338,7.7395,7.7494,7.7531,7.7598,7.7581,7.7607,7.7614,7.7621,7.7627,7.7461,7.7611,7.761,7.761,7.761,7.761,0,7.685,7.6889,7.6958,7.7038,7.7098,7.7091,7.7154,7.7204,7.728,7.7334,7.7396,7.7489,7.7563,7.7608,7.7683,7.7728,7.7729,7.7747,7.7746,7.7754,7.7636,7.7614,7.7746,7.7746,7.7746,7.7746,7.7746,7.7746,7.6927,7.7024,7.7045,7.7165,7.7203,7.7289,7.7326,7.7376,7.742,7.7524,7.7587,7.7616,7.7668,7.7747,7.7816,7.7827,7.7856,7.7876,7.7886,7.7776,7.7762,7.7749,7.7728,7.7882,7.7882,7.7999,7.8,7.8001]}]]